This is the latest recevied weather packets stored in our database for station/object SA7BGG-5. If no packets are shown the sender has not sent any weather packets the latest 10 day(s).
| Time | Temp. | Humidity | Pressure | Rain* | Wind** | Luminosity | Snow |
|---|---|---|---|---|---|---|---|
| 1778154901 | 17.22° C | 39% | 1020 hPa | - | - | - | - |
| 1778154601 | 17.22° C | 39% | 1020 hPa | - | - | - | - |
| 1778154300 | 17.78° C | 40% | 1020 hPa | - | - | - | - |
| 1778154005 | 17.78° C | 40% | 1020 hPa | - | - | - | - |
| 1778153705 | 18.33° C | 39% | 1020 hPa | - | - | - | - |
| 1778153404 | 18.33° C | 39% | 1020 hPa | - | - | - | - |
| 1778153104 | 17.78° C | 42% | 1020 hPa | - | - | - | - |
| 1778152804 | 17.78° C | 42% | 1020 hPa | - | - | - | - |
| 1778152503 | 18.33° C | 39% | 1020 hPa | - | - | - | - |
| 1778152203 | 18.33° C | 39% | 1020 hPa | - | - | - | - |
| 1778151903 | 19.44° C | 40% | 1020 hPa | - | - | - | - |
| 1778151602 | 19.44° C | 40% | 1020 hPa | - | - | - | - |
| 1778151302 | 18.33° C | 39% | 1020 hPa | - | - | - | - |
| 1778151002 | 18.33° C | 39% | 1020 hPa | - | - | - | - |
| 1778150701 | 18.33° C | 41% | 1020 hPa | - | - | - | - |
| 1778150401 | 18.33° C | 41% | 1020 hPa | - | - | - | - |
| 1778150100 | 17.78° C | 43% | 1020 hPa | - | - | - | - |
| 1778149805 | 17.78° C | 43% | 1020 hPa | - | - | - | - |
| 1778149505 | 16.67° C | 43% | 1020 hPa | - | - | - | - |
| 1778149204 | 16.67° C | 43% | 1020 hPa | - | - | - | - |
| 1778148904 | 16.67° C | 43% | 1020 hPa | - | - | - | - |
| 1778148603 | 16.67° C | 43% | 1020 hPa | - | - | - | - |
| 1778148303 | 16.67° C | 40% | 1020 hPa | - | - | - | - |
| 1778148003 | 16.67° C | 40% | 1020 hPa | - | - | - | - |
| 1778147703 | 16.67° C | 42% | 1020 hPa | - | - | - | - |
* Rain since midnight (hover to see other rain measurements)
** Current wind speed in m/s (hover to see current wind gust speed)